Location: Unspecified
(41.1637°N, 0.0000°E)
Time: 20:06:33
(UTC+00:00)

ITUPSAT 1 - Visible Passes

Search period start: 24 August 2019 00:00
Search period end: 03 September 2019 00:00
Orbit: 702 x 713 km, 98.6° (Epoch: 24 August)

Date Brightness Start Highest point End Pass type
(mag) Time Alt. Az. Time Alt. Az. Time Alt. Az.
24 Aug ? 03:19:07 10° ESE 03:22:46 22° ENE 03:26:26 10° NNE visible
25 Aug ? 04:02:07 10° SSE 04:06:47 58° ENE 04:11:29 10° N visible
26 Aug ? 03:10:27 10° ESE 03:13:41 18° ENE 03:16:56 10° NNE visible
26 Aug ? 04:46:28 10° S 04:51:05 50° W 04:55:45 10° NNW visible
27 Aug ? 03:53:05 10° SE 03:57:38 47° ENE 04:02:13 10° N visible
28 Aug ? 03:01:55 10° E 03:04:37 15° ENE 03:07:19 10° NNE visible
28 Aug ? 04:37:09 10° S 04:41:52 63° WSW 04:46:38 10° NNW visible
29 Aug ? 03:44:08 10° SE 03:48:30 38° ENE 03:52:55 10° N visible
30 Aug ? 02:53:38 10° E 02:55:34 12° ENE 02:57:30 10° NE visible
30 Aug ? 04:27:55 10° S 04:32:41 79° WSW 04:37:30 10° NNW visible
31 Aug ? 03:35:14 10° SE 03:39:24 31° ENE 03:43:35 10° N visible
01 Sep ? 04:18:44 10° SSE 04:23:30 83° ENE 04:28:19 10° NNW visible
02 Sep ? 03:26:24 10° ESE 03:30:17 25° ENE 03:34:11 10° NNE visible
